CAPE
619 870 1167 1402 1491 1468 1417 1429 1476 1597 1573 1561 1619 1598 1597 1583 1457 1435 1476 1531 1773 1936 1653 1085 415 316 327 319 290 302 436 721
541 598 535 526 585 644 675 715 748 807 877 969 1072 1117 1120 1142 1138 1140 1219 1275 1439 1622 1741 1565 1170 627 230 105 89 85 65 105
1190 836 645 515 561 655 678 707 696 718 869 853 924 974 931 964 910 1352 1343 901 1129 1306 1369 1428 1449 1317 1048 758 474 183 86 43
381 1119 1197 1187 909 1033 900 660 653 664 918 1082 1198 1222 1435 1533 1508 1689 1636 1037 791 907 983 1087 1208 1225 1153 1196 1117 968 807 487
50 980 1333 1568 1520 1549 1660 1394 1407 1271 1191 1151 1390 1216 1112 1180 1554 1361 1018 1212 799 784 1106 1143 1270 1094 1185 1155 976 1004 932 1025
278 945 1689 2239 2030 1896 1326 1430 1429 1292 1023 853 760 702 608 793 968 812 655 1111 324 364 417 698 776 961 1008 1038 1060 800 801 817
397 1372 1616 1576 1847 1870 1650 1293 940 585 378 242 203 176 210 291 207 115 51 156 149 205 242 587 554 507 543 425 468 447 382 478
763 938 787 771 893 830 622 570 388 340 268 163 39 2 5 7 0 1 0 0 0 0 7 31 77 116 114 138 193 188 177 149
720 534 479 495 495 417 315 219 107 48 40 10 0 0 0 0 0 0 0 0 0 0 0 0 0 1 20 66 43 12 0 0
266 227 162 178 159 106 49 13 24 29 12 0 0 0 0 0 0 0 0 0 0 0 0 0 0 0 0 0 1 0 0 0
21 7 4 2 0 0 0 0 0 0 0 0 0 0 0 0 0 0 0 0 0 0 0 0 0 0 0 0 0 0 0 0
0 0 0 0 0 0 0 0 0 0 0 0 0 0 0 0 0 0 0 0 0 0 0 0 0 0 0 0 0 0 0 0
0 0 0 0 0 0 0 0 0 0 0 0 0 0 0 0 0 0 0 0 0 0 0 0 0 0 0 0 0 0 0 0
0 0 0 0 0 0 0 0 0 0 0 0 0 0 0 0 0 0 0 0 0 0 0 0 0 0 0 0 0 0 0 0
0 0 0 0 0 0 0 0 0 0 0 0 0 0 0 0 0 0 0 0 0 0 0 0 0 0 0 0 0 0 0 0
0 0 0 0 0 0 0 0 0 0 0 0 0 0 0 0 0 0 0 0 0 0 0 0 0 0 0 0 0 0 0 0
0 0 0 0 0 0 0 0 0 0 0 0 0 0 0 0 0 0 0 0 0 0 0 0 0 0 0 0 0 0 0 0
0 0 0 0 0 1 0 0 0 0 0 0 0 0 0 0 0 0 0 0 0 0 0 0 0 0 0 0 0 0 0 0
0 0 0 0 0 0 0 0 0 0 0 0 0 1 1 0 8 2 0 0 0 0 0 0 0 1 0 0 0 3 0 0
0 0 0 0 0 0 0 0 0 0 5 8 7 5 1 0 4 2 1 1 1 3 5 3 0 4 10 11 8 0 0 0
CIN
-250 -204 -179 -172 -156 -176 -174 -158 -139 -109 -87 -87 -89 -82 -81 -80 -88 -83 -79 -79 -58 -45 -72 -125 -245 -271 -269 -263 -254 -231 -176 -19
-206 -193 -248 -255 -265 -252 -272 -244 -226 -201 -152 -138 -120 -108 -91 -80 -73 -77 -68 -62 -49 -41 -31 -44 -83 -153 -257 -301 -48 -298 -279 -266
-132 -98 -143 -220 -245 -195 -236 -242 -229 -207 -158 -133 -128 -112 -93 -81 -66 -3 -2 -56 -30 -13 -11 -13 -13 -33 -67 -99 -131 -198 -27 -27
-278 -50 -62 -83 -113 -99 -108 -144 -200 -178 -105 -74 -52 -58 -33 -10 -2 0 0 -33 -39 -34 -30 -12 -7 -11 -31 -34 -36 -59 -73 -99
-482 -86 -37 -37 -51 -47 -33 -54 -73 -86 -61 -64 -25 -15 -34 -15 -1 -4 -19 -16 -42 -32 -20 -16 -9 -22 -16 -8 -15 -10 -24 -18
-351 -58 -42 -57 -37 -35 -55 -63 -62 -64 -97 -100 -65 -47 -54 -26 -27 -36 -23 -1 -60 -72 -72 -67 -67 -61 -21 -12 -21 -20 -26 -21
-201 -13 -26 -56 -45 -24 -23 -39 -45 -82 -140 -134 -131 -104 -77 -69 -73 -102 -150 -70 -62 -50 -64 -51 -70 -83 -48 -60 -56 -48 -59 -48
-75 -52 -76 -83 -66 -94 -86 -67 -102 -117 -111 -90 -88 -53 -83 -71 -7 -24 0 0 0 -7 -11 -52 -117 -88 -68 -61 -58 -48 -36 -49
-81 -103 -108 -116 -141 -87 -146 -178 -141 -194 -227 -210 0 0 0 0 0 0 0 0 0 0 0 0 0 -5 -64 -42 -38 -33 0 0
-81 -75 -127 -228 -230 -191 -193 -63 -65 -72 -113 0 0 0 0 0 0 0 0 0 0 0 0 0 0 0 0 0 -32 0 0 0
-314 -124 -128 -116 0 0 0 0 0 0 0 0 0 0 0 0 0 0 0 0 0 0 0 0 0 0 0 0 0 0 0 0
0 0 0 0 0 0 0 0 0 0 0 0 0 0 0 0 0 0 0 0 0 0 0 0 0 0 0 0 0 0 0 0
0 0 0 0 0 0 0 0 0 0 0 0 0 0 0 0 0 0 0 0 0 0 0 0 0 0 0 0 0 0 0 0
0 0 0 0 0 0 0 0 0 0 0 0 0 0 0 0 0 0 0 0 0 0 0 0 0 0 0 0 0 0 0 0
0 0 0 0 0 0 0 0 0 0 0 0 0 0 0 0 0 0 0 0 0 0 0 0 0 0 0 0 0 0 0 0
0 0 0 0 0 0 0 0 0 0 0 0 0 0 0 0 0 0 0 0 0 0 0 0 0 0 0 0 0 0 0 0
0 0 0 0 0 0 0 0 0 0 0 0 0 0 0 0 0 0 0 0 0 0 0 0 0 0 0 0 0 0 0 0
0 0 0 0 0 0 0 0 0 0 0 0 0 0 0 0 0 0 0 0 0 0 0 0 0 0 0 0 0 0 0 0
0 0 0 0 0 0 0 0 0 0 0 0 0 -4 0 0 0 0 0 0 0 0 0 0 0 -2 0 0 0 -4 0 0
0 0 0 0 0 0 0 0 0 0 0 -17 -12 -5 -1 0 0 -3 0 -1 -1 -1 -2 -1 0 -16 -12 -12 -5 -1 0 0
Wind_Speed
20 18 21 21 22 25 28 29 29 28 27 28 31 28 26 23 23 23 24 26 26 27 28 28 26 25 24 25 25 26 27 22
31 24 23 23 21 24 28 31 32 32 30 30 32 30 27 25 21 21 21 24 25 26 27 27 27 26 26 25 nan nan nan 27
33 23 19 21 23 23 26 31 35 36 34 34 32 32 31 31 27 22 25 25 25 26 29 28 28 29 28 27 28 32 nan nan
45 31 19 20 27 27 29 32 33 34 36 37 35 37 40 41 41 45 42 36 35 34 29 32 34 36 33 31 33 32 32 28
nan 19 22 26 27 25 25 30 32 37 43 45 41 40 39 39 38 39 39 42 37 39 42 41 36 33 34 33 33 32 33 29
35 27 23 28 26 32 33 31 33 37 43 52 49 42 45 41 42 44 44 44 39 40 40 36 39 43 41 33 35 37 38 30
31 26 22 23 20 20 26 29 32 31 42 46 46 44 47 35 43 44 nan 38 35 34 35 35 37 39 31 32 31 30 30 30
31 28 25 27 26 31 30 30 31 29 38 46 nan nan nan nan nan nan nan nan nan nan nan nan nan 42 38 34 33 31 32 34
34 30 29 30 36 37 36 37 35 nan nan nan nan nan nan nan nan nan nan nan nan nan nan nan nan nan nan nan nan nan nan nan
33 35 35 37 38 36 nan nan nan nan nan nan nan nan nan nan nan nan nan nan nan nan nan nan nan nan nan nan nan nan nan nan
nan nan nan nan nan nan nan nan nan nan nan nan nan nan nan nan nan nan nan nan nan nan nan nan nan nan nan nan nan nan nan nan
nan nan nan nan nan nan nan nan nan nan nan nan nan nan nan nan nan nan nan nan nan nan nan nan nan nan nan nan nan nan nan nan
nan nan nan nan nan nan nan nan nan nan nan nan nan nan nan nan nan nan nan nan nan nan nan nan nan nan nan nan nan nan nan nan
nan nan nan nan nan nan nan nan nan nan nan nan nan nan nan nan nan nan nan nan nan nan nan nan nan nan nan nan nan nan nan nan
nan nan nan nan nan nan nan nan nan nan nan nan nan nan nan nan nan nan nan nan nan nan nan nan nan nan nan nan nan nan nan nan
nan nan nan nan nan nan nan nan nan nan nan nan nan nan nan nan nan nan nan nan nan nan nan nan nan nan nan nan nan nan nan nan
nan nan nan nan nan nan nan nan nan nan nan nan nan nan nan nan nan nan nan nan nan nan nan nan nan nan nan nan nan nan nan nan
nan nan nan nan nan nan nan nan nan nan nan nan nan nan nan nan nan nan nan nan nan nan nan nan nan nan nan nan nan nan nan nan
nan nan nan nan nan nan nan nan nan nan nan nan nan nan nan nan nan nan nan nan nan nan nan nan nan nan nan nan nan nan nan nan
nan nan nan nan nan nan nan nan nan nan nan nan nan nan nan nan nan nan nan nan nan nan nan nan nan nan nan nan nan nan nan nan
Wind_Direction
232 235 238 241 239 245 245 247 251 255 254 257 262 260 260 263 266 266 269 272 272 272 274 274 271 269 267 266 267 271 271 268
237 226 237 239 247 257 260 263 261 256 253 255 254 255 257 258 259 264 265 267 271 276 276 277 276 275 272 272 nan nan nan 277
243 221 236 253 263 262 266 264 253 253 254 252 258 262 256 256 253 260 262 264 268 268 268 268 269 268 269 268 268 274 nan nan
285 231 215 233 246 248 253 261 266 266 266 264 263 262 262 257 252 248 250 249 249 249 255 263 268 268 270 269 272 274 272 275
nan 343 243 225 235 247 256 263 270 272 271 271 265 261 265 260 258 257 255 249 254 251 254 258 261 262 265 270 268 268 269 280
322 341 343 273 276 262 256 260 262 276 271 270 268 267 264 262 265 261 259 256 257 259 261 261 267 265 250 260 268 253 257 271
312 323 324 315 311 306 277 280 284 278 277 284 282 275 270 268 271 274 nan 262 266 269 271 264 261 260 261 265 261 262 243 266
305 306 311 310 307 287 294 294 293 294 274 270 nan nan nan nan nan nan nan nan nan nan nan nan nan 272 274 271 266 270 263 258
301 303 307 310 309 305 312 307 304 nan nan nan nan nan nan nan nan nan nan nan nan nan nan nan nan nan nan nan nan nan nan nan
304 304 306 306 304 306 nan nan nan nan nan nan nan nan nan nan nan nan nan nan nan nan nan nan nan nan nan nan nan nan nan nan
nan nan nan nan nan nan nan nan nan nan nan nan nan nan nan nan nan nan nan nan nan nan nan nan nan nan nan nan nan nan nan nan
nan nan nan nan nan nan nan nan nan nan nan nan nan nan nan nan nan nan nan nan nan nan nan nan nan nan nan nan nan nan nan nan
nan nan nan nan nan nan nan nan nan nan nan nan nan nan nan nan nan nan nan nan nan nan nan nan nan nan nan nan nan nan nan nan
nan nan nan nan nan nan nan nan nan nan nan nan nan nan nan nan nan nan nan nan nan nan nan nan nan nan nan nan nan nan nan nan
nan nan nan nan nan nan nan nan nan nan nan nan nan nan nan nan nan nan nan nan nan nan nan nan nan nan nan nan nan nan nan nan
nan nan nan nan nan nan nan nan nan nan nan nan nan nan nan nan nan nan nan nan nan nan nan nan nan nan nan nan nan nan nan nan
nan nan nan nan nan nan nan nan nan nan nan nan nan nan nan nan nan nan nan nan nan nan nan nan nan nan nan nan nan nan nan nan
nan nan nan nan nan nan nan nan nan nan nan nan nan nan nan nan nan nan nan nan nan nan nan nan nan nan nan nan nan nan nan nan
nan nan nan nan nan nan nan nan nan nan nan nan nan nan nan nan nan nan nan nan nan nan nan nan nan nan nan nan nan nan nan nan
nan nan nan nan nan nan nan nan nan nan nan nan nan nan nan nan nan nan nan nan nan nan nan nan nan nan nan nan nan nan nan nan